DW6455 Orivesi FI current weather conditions

sailwx.info

Wind at 0 knots gusting 5

Air temperature 6.7° C
Dewpoint 5.8° C

Last reported at 2019-Sep-21 17:02 UTC.
Time now 2019-Sep-21 17:55 UTC

Location: N 61°39' E 024°21'.
View on Google Maps.

See reports from other nearby stations

  
Tides and Currents Weather Stations Pressure Air Temp Water Temp Dewpoint Dewpoint Depression Visibility Wind Speed Wind Dir Waves Ship Positions
date/time (UTC)wind fromknots sea level pressurealtimeterstation pressurevisibilityair tempwater tempwave heightnotes
2019-Sep-21 17:02 6.7
2019-Sep-21 16:57 6.7
2019-Sep-21 16:52 6.7
2019-Sep-21 16:47 6.7
2019-Sep-21 16:42 355 2 gusting 7 6.7
2019-Sep-21 16:37 005 3 gusting 8 7.2
2019-Sep-21 16:32 011 4 gusting 8 7.2
2019-Sep-21 16:27 049 4 gusting 8 7.2
2019-Sep-21 16:22 017 3 gusting 8 7.2
2019-Sep-21 16:17 005 3 gusting 8 7.2
2019-Sep-21 16:12 355 2 gusting 5 7.2
2019-Sep-21 16:07 7.2
2019-Sep-21 16:02 011 0 gusting 4 7.2
2019-Sep-21 15:57 011 0 gusting 4 7.2
2019-Sep-21 15:52 011 1 gusting 4 7.8
2019-Sep-21 15:47 011 1 gusting 4 7.8
2019-Sep-21 15:42 027 1 gusting 6 7.8
2019-Sep-21 15:37 015 1 gusting 6 7.8
2019-Sep-21 15:32 015 1 gusting 6 7.8
2019-Sep-21 15:27 015 2 gusting 6 7.8
2019-Sep-21 15:22 015 3 gusting 8 7.8
2019-Sep-21 15:17 005 4 gusting 8 7.8
2019-Sep-21 15:12 005 3 gusting 7 7.8
2019-Sep-21 15:07 038 3 gusting 7 7.8
2019-Sep-21 15:02 017 2 gusting 5 8.3
2019-Sep-21 14:57 021 1 gusting 5 8.3
2019-Sep-21 14:52 005 1 gusting 6 8.3
2019-Sep-21 14:47 005 1 gusting 6 8.3
2019-Sep-21 14:42 005 2 gusting 6 8.3
2019-Sep-21 14:37 011 2 gusting 6 8.3
2019-Sep-21 14:32 017 2 gusting 9 8.3
2019-Sep-21 14:27 350 3 gusting 9 8.3
2019-Sep-21 14:22 339 4 gusting 7 8.3
2019-Sep-21 14:17 030 4 gusting 7 8.9
2019-Sep-21 14:12 346 3 gusting 4 8.9
2019-Sep-21 14:07 027 1 gusting 4 8.9
2019-Sep-21 14:02 031 0 gusting 5 8.9
2019-Sep-21 13:57 031 0 gusting 5 8.9
2019-Sep-21 13:52 037 1 gusting 5 9.4
2019-Sep-21 13:47 036 2 gusting 5 9.4
2019-Sep-21 13:42 024 2 gusting 6 9.4
2019-Sep-21 13:37 038 1 gusting 6 9.4
2019-Sep-21 13:32 055 1 gusting 6 9.4
2019-Sep-21 13:27 029 2 gusting 6 9.4
2019-Sep-21 13:22 026 1 gusting 5 9.4
2019-Sep-21 13:17 013 2 gusting 5 9.4
2019-Sep-21 13:12 028 1 gusting 5 9.4
2019-Sep-21 13:07 025 1 gusting 5 9.4
2019-Sep-21 13:02 044 1 gusting 7 9.4
2019-Sep-21 12:57 047 1 gusting 7 9.4
2019-Sep-21 12:52 046 2 gusting 7 9.4
2019-Sep-21 12:47 040 2 gusting 7 9.4
2019-Sep-21 12:42 045 3 gusting 8 10.0
2019-Sep-21 12:37 028 3 gusting 8 10.0
2019-Sep-21 12:32 005 3 gusting 7 10.0
2019-Sep-21 12:27 080 3 gusting 7 10.0
2019-Sep-21 12:22 016 2 gusting 7 10.0
2019-Sep-21 12:17 038 0 gusting 7 10.0
2019-Sep-21 12:12 336 1 gusting 7 10.0
2019-Sep-21 12:07 336 1 gusting 7 10.0
2019-Sep-21 12:02 334 1 gusting 5 10.0
2019-Sep-21 11:57 338 1 gusting 5 10.0
2019-Sep-21 11:52 330 0 gusting 5 10.0
2019-Sep-21 11:47 330 1 gusting 5 10.0
2019-Sep-21 11:42 330 1 gusting 5 10.0
2019-Sep-21 11:37 327 0 gusting 5 10.0
2019-Sep-21 11:32 311 9.4
2019-Sep-21 11:27 317 0 gusting 4 9.4
2019-Sep-21 11:22 320 0 gusting 3 9.4
2019-Sep-21 11:17 333 9.4
2019-Sep-21 11:12 312 9.4
2019-Sep-21 11:07 312 9.4
2019-Sep-21 11:02 312 0 gusting 3 9.4
2019-Sep-21 10:57 311 0 gusting 3 9.4
2019-Sep-21 10:52 315 0 gusting 3 9.4
2019-Sep-21 10:47 315 0 gusting 3 9.4
2019-Sep-21 10:42 315 0 gusting 2 9.4
2019-Sep-21 10:37 355 9.4
2019-Sep-21 10:32 355 0 gusting 4 9.4
2019-Sep-21 10:27 9.4
2019-Sep-21 10:22 355 9.4
2019-Sep-21 10:17 355 0 gusting 4 9.4
2019-Sep-21 10:12 355 0 gusting 3 8.9
2019-Sep-21 10:07 355 0 gusting 3 8.9
2019-Sep-21 10:02 355 0 gusting 3 8.9
2019-Sep-21 09:57 355 0 gusting 3 8.9
2019-Sep-21 09:52 8.9
2019-Sep-21 09:47 8.9
2019-Sep-21 09:42 8.9
2019-Sep-21 09:37 8.9
2019-Sep-21 09:32 8.9
2019-Sep-21 09:27 355 1 gusting 4 8.9
2019-Sep-21 09:22 355 0 gusting 5 8.9
2019-Sep-21 09:17 034 0 gusting 5 8.3
2019-Sep-21 09:12 034 1 gusting 5 8.3
2019-Sep-21 09:07 034 1 gusting 5 8.3
2019-Sep-21 09:02 035 1 gusting 4 8.3
2019-Sep-21 08:57 054 1 gusting 4 8.3
2019-Sep-21 08:52 038 1 gusting 4 8.3
2019-Sep-21 08:47 060 0 gusting 4 8.3
2019-Sep-21 08:42 068 1 gusting 4 8.3
2019-Sep-21 08:37 067 0 gusting 4 7.8
2019-Sep-21 08:32 071 0 gusting 3 7.8
2019-Sep-21 08:27 192 0 gusting 3 7.8
2019-Sep-21 08:22 192 0 gusting 3 7.8
2019-Sep-21 08:17 193 0 gusting 3 7.8
2019-Sep-21 08:12 201 0 gusting 3 7.8
2019-Sep-21 08:07 201 0 gusting 3 7.8
2019-Sep-21 08:02 202 0 gusting 1 7.8
2019-Sep-21 07:57 203 0 gusting 1 7.8
2019-Sep-21 07:52 203 0 gusting 2 7.2
2019-Sep-21 07:47 202 7.2
2019-Sep-21 07:42 202 7.2
2019-Sep-21 07:37 202 7.2
2019-Sep-21 07:32 202 7.2
2019-Sep-21 07:27 203 0 gusting 2 7.2
2019-Sep-21 07:22 203 0 gusting 2 7.2
2019-Sep-21 07:17 202 0 gusting 2 7.2
2019-Sep-21 07:12 203 7.2
2019-Sep-21 07:07 202 7.2
2019-Sep-21 07:02 202 7.2
2019-Sep-21 06:57 202 7.2
2019-Sep-21 06:52 202 7.2
2019-Sep-21 06:47 203 6.7
2019-Sep-21 06:42 203 6.7
2019-Sep-21 06:37 202 6.7
2019-Sep-21 06:32 202 6.7
2019-Sep-21 06:27 202 6.7
2019-Sep-21 06:22 202 6.7
2019-Sep-21 06:17 203 6.7
2019-Sep-21 06:12 203 6.7
2019-Sep-21 06:07 202 6.7
2019-Sep-21 06:02 203 6.7
2019-Sep-21 05:57 203 6.7
2019-Sep-21 05:52 202 6.7
2019-Sep-21 05:47 203 6.7
2019-Sep-21 05:42 202 6.7
2019-Sep-21 05:37 202 6.7
2019-Sep-21 05:32 203 6.7
2019-Sep-21 05:27 202 6.7
2019-Sep-21 05:22 203 6.7
2019-Sep-21 05:17 202 6.7
2019-Sep-21 05:12 203 6.7
2019-Sep-21 05:07 203 6.7
2019-Sep-21 05:02 203 6.7
2019-Sep-21 04:57 203 6.7
2019-Sep-21 04:52 203 0 gusting 3 6.7
2019-Sep-21 04:47 202 0 gusting 3 6.7
2019-Sep-21 04:42 202 6.7
2019-Sep-21 04:37 202 6.7
2019-Sep-21 04:32 202 0 gusting 3 6.7
2019-Sep-21 04:27 202 0 gusting 3 6.7
2019-Sep-21 04:22 203 0 gusting 2 6.7
2019-Sep-21 04:17 202 6.7
2019-Sep-21 04:12 202 6.7
2019-Sep-21 04:07 202 6.7
2019-Sep-21 04:02 203 0 gusting 3 6.7
2019-Sep-21 03:57 202 6.7
2019-Sep-21 03:52 202 0 gusting 2 6.7
2019-Sep-21 03:47 203 0 gusting 2 6.7
2019-Sep-21 03:42 202 6.7
2019-Sep-21 03:37 202 6.7
2019-Sep-21 03:32 202 6.7
2019-Sep-21 03:27 203 6.7
2019-Sep-21 03:22 203 6.7
2019-Sep-21 03:17 203 6.7
2019-Sep-21 03:12 203 6.7
2019-Sep-21 03:07 202 0 gusting 5 6.7
2019-Sep-21 03:02 202 0 gusting 5 6.7
2019-Sep-21 02:57 200 1 gusting 5 6.7
2019-Sep-21 02:52 200 1 gusting 4 6.7
2019-Sep-21 02:47 200 1 gusting 4 6.7
2019-Sep-21 02:42 214 0 gusting 4 6.1
2019-Sep-21 02:37 213 0 gusting 4 6.1
2019-Sep-21 02:32 213 0 gusting 4 6.1
2019-Sep-21 02:27 213 0 gusting 4 6.1
2019-Sep-21 02:22 213 0 gusting 5 6.1
2019-Sep-21 02:17 213 0 gusting 5 6.1
2019-Sep-21 02:12 214 1 gusting 5 6.1
2019-Sep-21 02:07 218 0 gusting 5 6.1
2019-Sep-21 02:02 217 0 gusting 4 6.1
2019-Sep-21 01:57 217 0 gusting 4 6.1
2019-Sep-21 01:52 215 0 gusting 5 6.1
2019-Sep-21 01:47 215 0 gusting 5 6.1
2019-Sep-21 01:42 215 0 gusting 5 6.1
2019-Sep-21 01:37 214 0 gusting 4 6.1
2019-Sep-21 01:32 213 0 gusting 4 6.1
2019-Sep-21 01:27 193 6.1
2019-Sep-21 01:22 193 0 gusting 3 6.1
2019-Sep-21 01:17 178 0 gusting 3 6.1
2019-Sep-21 01:12 184 6.1
2019-Sep-21 01:07 186 5.6
2019-Sep-21 01:02 329 5.6
2019-Sep-21 00:57 329 5.6
2019-Sep-21 00:52 329 5.6
2019-Sep-21 00:47 329 5.6
2019-Sep-21 00:42 329 5.6
2019-Sep-21 00:37 329 5.6
2019-Sep-21 00:32 329 5.6
2019-Sep-21 00:27 329 5.6
2019-Sep-21 00:22 329 5.6
2019-Sep-21 00:17 329 5.6
2019-Sep-21 00:12 330 5.6
2019-Sep-21 00:07 330 5.6
2019-Sep-21 00:02 330 5.6
2019-Sep-20 23:57 330 5.6
2019-Sep-20 23:52 330 5.6
2019-Sep-20 23:47 330 5.6
2019-Sep-20 23:42 330 5.6
2019-Sep-20 23:37 330 5.6
2019-Sep-20 23:32 330 5.0
2019-Sep-20 23:27 330 5.0
2019-Sep-20 23:22 330 5.0
2019-Sep-20 23:17 330 5.0
2019-Sep-20 23:12 330 5.0
2019-Sep-20 23:07 330 5.0
2019-Sep-20 23:02 330 5.0
2019-Sep-20 22:57 330 5.0
2019-Sep-20 22:52 330 5.0
2019-Sep-20 22:47 330 5.0
2019-Sep-20 22:42 330 5.0
2019-Sep-20 22:37 330 5.0
2019-Sep-20 22:32 330 5.0
2019-Sep-20 22:27 330 5.0
2019-Sep-20 22:22 330 5.0
2019-Sep-20 22:17 330 5.0
2019-Sep-20 22:12 330 5.0
2019-Sep-20 22:07 330 5.0
2019-Sep-20 22:02 330 5.0
2019-Sep-20 21:57 330 5.0
2019-Sep-20 21:52 330 5.6
2019-Sep-20 21:47 330 5.6
2019-Sep-20 21:42 330 5.6
2019-Sep-20 21:37 331 5.6
2019-Sep-20 21:32 330 5.6
2019-Sep-20 21:27 330 5.6
2019-Sep-20 21:22 330 5.6
2019-Sep-20 21:17 330 5.6
2019-Sep-20 21:12 330 5.6
2019-Sep-20 21:07 330 5.6
2019-Sep-20 21:02 330 5.6
2019-Sep-20 20:57 330 5.6
2019-Sep-20 20:52 330 6.1
2019-Sep-20 20:47 330 6.1
2019-Sep-20 20:42 330 6.1
2019-Sep-20 20:37 330 6.1
2019-Sep-20 20:32 330 6.1
2019-Sep-20 20:27 330 6.1
2019-Sep-20 20:22 330 6.1
2019-Sep-20 20:17 330 6.1
2019-Sep-20 20:12 330 6.1
2019-Sep-20 20:07 330 6.1
2019-Sep-20 20:02 330 6.1
2019-Sep-20 19:57 330 5.6
2019-Sep-20 19:52 330 5.6
2019-Sep-20 19:47 330 5.6
2019-Sep-20 19:42 331 5.6
2019-Sep-20 19:37 331 5.6
2019-Sep-20 19:32 333 5.6
2019-Sep-20 19:27 333 5.6
2019-Sep-20 19:22 333 5.6
2019-Sep-20 19:17 333 5.6
2019-Sep-20 19:12 333 5.6
2019-Sep-20 19:07 333 5.6
2019-Sep-20 19:02 334 5.6
2019-Sep-20 18:57 333 5.6
2019-Sep-20 18:52 333 5.6
2019-Sep-20 18:47 333 5.6
2019-Sep-20 18:42 333 5.6
2019-Sep-20 18:37 333 5.6
2019-Sep-20 18:32 333 5.6
2019-Sep-20 18:27 333 5.6
2019-Sep-20 18:22 333 5.6
2019-Sep-20 18:17 333 5.6
2019-Sep-20 18:12 333 5.6
2019-Sep-20 18:07 333 5.6
2019-Sep-20 18:02 333 5.6
2019-Sep-20 17:57 333 5.6
2019-Sep-20 17:52 333 6.1
2019-Sep-20 17:47 333 6.1
2019-Sep-20 17:42 333 6.1
2019-Sep-20 17:37 333 6.1
2019-Sep-20 17:32 334 6.1
2019-Sep-20 17:27 333 6.1
2019-Sep-20 17:22 333 6.1
2019-Sep-20 17:17 333 6.1
2019-Sep-20 17:12 333 6.1
2019-Sep-20 17:07 333 6.1
2019-Sep-20 17:02 334 6.1
2019-Sep-20 16:57 333 6.1
2019-Sep-20 16:52 333 6.7
2019-Sep-20 16:47 333 6.7
2019-Sep-20 16:42 333 6.7
2019-Sep-20 16:37 333 6.7
2019-Sep-20 16:32 333 6.7
2019-Sep-20 16:27 333 6.7
2019-Sep-20 16:22 333 6.7
2019-Sep-20 16:17 333 7.2
2019-Sep-20 16:12 333 7.2
2019-Sep-20 16:07 333 7.2
2019-Sep-20 16:02 333 7.2
2019-Sep-20 15:57 333 7.8
2019-Sep-20 15:52 333 7.8
2019-Sep-20 15:47 333 7.8
2019-Sep-20 15:42 333 8.3
2019-Sep-20 15:37 333 8.3
2019-Sep-20 15:32 333 8.3
2019-Sep-20 15:27 333 8.3
2019-Sep-20 15:22 333 8.3
2019-Sep-20 15:17 333 8.9
2019-Sep-20 15:12 333 8.9
2019-Sep-20 15:07 333 8.9
2019-Sep-20 15:02 333 8.9
2019-Sep-20 14:57 333 8.9
2019-Sep-20 14:52 333 8.9
2019-Sep-20 14:47 333 8.9
2019-Sep-20 14:42 333 9.4
2019-Sep-20 14:37 333 9.4
2019-Sep-20 14:32 333 9.4
2019-Sep-20 14:27 333 9.4
2019-Sep-20 14:22 333 9.4
2019-Sep-20 14:17 333 9.4
2019-Sep-20 14:12 333 9.4
2019-Sep-20 14:07 333 9.4
2019-Sep-20 14:02 333 0 gusting 5 9.4
2019-Sep-20 13:57 333 0 gusting 5 9.4
2019-Sep-20 13:52 348 1 gusting 5 9.4
2019-Sep-20 13:47 314 1 gusting 5 9.4
2019-Sep-20 13:42 296 1 gusting 8 9.4
2019-Sep-20 13:37 298 1 gusting 8 9.4
2019-Sep-20 13:32 346 0 gusting 8 9.4
2019-Sep-20 13:27 303 1 gusting 8 9.4
2019-Sep-20 13:22 319 2 gusting 7 9.4
2019-Sep-20 13:17 317 1 gusting 7 10.0
2019-Sep-20 13:12 308 1 gusting 6 10.0
2019-Sep-20 13:07 319 0 gusting 6 10.0
2019-Sep-20 13:02 309 1 gusting 10 10.0
2019-Sep-20 12:57 309 2 gusting 10 10.0
2019-Sep-20 12:52 005 3 gusting 10 10.0
2019-Sep-20 12:47 334 2 gusting 10 10.6
2019-Sep-20 12:42 311 1 gusting 5 10.6
2019-Sep-20 12:37 034 0 gusting 5 10.6
2019-Sep-20 12:32 315 0 gusting 8 10.6
2019-Sep-20 12:27 033 0 gusting 8 10.6
2019-Sep-20 12:22 042 1 gusting 8 10.6
2019-Sep-20 12:17 333 2 gusting 8 10.6
2019-Sep-20 12:12 339 2 gusting 9 10.6
2019-Sep-20 12:07 346 1 gusting 9 10.0
2019-Sep-20 12:02 345 2 gusting 10 10.0
2019-Sep-20 11:57 344 2 gusting 10 10.0
2019-Sep-20 11:52 292 3 gusting 6 9.4
2019-Sep-20 11:47 337 2 gusting 6 9.4
2019-Sep-20 11:42 291 1 gusting 8 9.4
2019-Sep-20 11:37 314 1 gusting 8 9.4
2019-Sep-20 11:32 325 1 gusting 9 9.4
2019-Sep-20 11:27 286 1 gusting 9 9.4
2019-Sep-20 11:22 306 1 gusting 8 9.4
2019-Sep-20 11:17 287 2 gusting 8 9.4
2019-Sep-20 11:12 323 2 gusting 9 9.4
2019-Sep-20 11:07 335 2 gusting 9 9.4
2019-Sep-20 11:02 317 1 gusting 6 9.4
2019-Sep-20 10:57 298 1 gusting 6 9.4
2019-Sep-20 10:52 302 1 gusting 6 9.4
2019-Sep-20 10:47 246 0 gusting 6 9.4
2019-Sep-20 10:42 346 0 gusting 6 9.4
2019-Sep-20 10:37 221 0 gusting 6 9.4
2019-Sep-20 10:32 322 0 gusting 9 9.4
2019-Sep-20 10:27 329 1 gusting 9 9.4
2019-Sep-20 10:22 263 1 gusting 8 9.4
2019-Sep-20 10:17 337 0 gusting 8 9.4
2019-Sep-20 10:12 322 0 gusting 8 9.4
2019-Sep-20 10:07 245 1 gusting 8 9.4
2019-Sep-20 10:02 301 2 gusting 9 8.9
2019-Sep-20 09:57 329 3 gusting 9 8.9
2019-Sep-20 09:52 311 3 gusting 9 8.9
2019-Sep-20 09:47 294 3 gusting 9 8.9
2019-Sep-20 09:42 331 2 gusting 9 8.9
2019-Sep-20 09:37 288 2 gusting 9 8.9
2019-Sep-20 09:32 329 2 gusting 9 8.9
2019-Sep-20 09:27 267 1 gusting 9 8.3
2019-Sep-20 09:22 299 1 gusting 9 8.3
2019-Sep-20 09:17 304 2 gusting 9 8.3
2019-Sep-20 09:12 305 3 gusting 9 8.3
2019-Sep-20 09:07 338 1 gusting 9 7.8
2019-Sep-20 09:02 265 1 gusting 10 7.8
2019-Sep-20 08:57 281 1 gusting 10 7.8
2019-Sep-20 08:52 327 1 gusting 10 7.8
2019-Sep-20 08:47 304 1 gusting 10 7.2
2019-Sep-20 08:42 350 1 gusting 5 7.2
2019-Sep-20 08:37 257 1 gusting 5 7.2
2019-Sep-20 08:32 340 0 gusting 3 7.2
2019-Sep-20 08:27 309 0 gusting 3 6.7
2019-Sep-20 08:22 250 0 gusting 2 6.7
2019-Sep-20 08:17 309 0 gusting 2 6.1
2019-Sep-20 08:12 312 0 gusting 4 6.1
2019-Sep-20 08:07 312 0 gusting 4 6.1
2019-Sep-20 08:02 312 0 gusting 5 6.1
2019-Sep-20 07:57 283 6.1
2019-Sep-20 07:52 284 0 gusting 4 5.6
2019-Sep-20 07:47 283 0 gusting 4 5.6
2019-Sep-20 07:42 302 0 gusting 6 5.6
2019-Sep-20 07:37 301 0 gusting 6 5.6
2019-Sep-20 07:32 290 0 gusting 6 5.0
2019-Sep-20 07:27 297 0 gusting 6 5.0
2019-Sep-20 07:22 294 0 gusting 6 5.0
2019-Sep-20 07:17 311 0 gusting 6 5.0
2019-Sep-20 07:12 311 0 gusting 7 4.4
2019-Sep-20 07:07 324 0 gusting 7 4.4
2019-Sep-20 07:02 324 1 gusting 7 4.4
2019-Sep-20 06:57 324 1 gusting 7 4.4
2019-Sep-20 06:52 323 1 gusting 5 3.9
2019-Sep-20 06:47 295 0 gusting 5 3.9
2019-Sep-20 06:42 310 0 gusting 4 3.9
2019-Sep-20 06:37 308 0 gusting 4 3.9
2019-Sep-20 06:32 316 0 gusting 4 3.3
2019-Sep-20 06:27 332 0 gusting 4 3.3
2019-Sep-20 06:22 329 0 gusting 4 3.3
2019-Sep-20 06:17 300 0 gusting 4 3.3
2019-Sep-20 06:12 299 2.8
2019-Sep-20 06:07 300 2.8
2019-Sep-20 06:02 301 2.8
2019-Sep-20 05:57 301 2.2
2019-Sep-20 05:52 301 2.2
2019-Sep-20 05:47 301 0 gusting 4 2.2
2019-Sep-20 05:42 300 0 gusting 4 1.7
2019-Sep-20 05:37 298 0 gusting 4 1.7
2019-Sep-20 05:32 298 0 gusting 3 1.7
2019-Sep-20 05:27 298 0 gusting 3 1.7
2019-Sep-20 05:22 298 1.7
2019-Sep-20 05:17 298 1.7
2019-Sep-20 05:12 298 0 gusting 3 1.7
2019-Sep-20 05:07 298 0 gusting 3 1.1
2019-Sep-20 05:02 299 0 gusting 3 1.1
2019-Sep-20 04:57 298 0 gusting 3 1.1
2019-Sep-20 04:52 299 0 gusting 4 1.1
2019-Sep-20 04:47 298 0 gusting 4 1.1
2019-Sep-20 04:42 298 0 gusting 5 1.1
2019-Sep-20 04:37 298 0 gusting 5 1.1
2019-Sep-20 04:32 298 0 gusting 5 1.1
2019-Sep-20 04:27 297 1 gusting 5 1.1
2019-Sep-20 04:22 291 1 gusting 6 1.1
2019-Sep-20 04:17 340 1 gusting 6 1.1
2019-Sep-20 04:12 300 1 gusting 5 1.1
2019-Sep-20 04:07 290 1 gusting 5 1.1
2019-Sep-20 04:02 318 0 gusting 6 1.1
2019-Sep-20 03:57 333 0 gusting 6 1.1
2019-Sep-20 03:52 314 1 gusting 6 1.1
2019-Sep-20 03:47 310 1 gusting 6 1.1
2019-Sep-20 03:42 326 1 gusting 6 1.1
2019-Sep-20 03:37 317 1 gusting 6 1.1
2019-Sep-20 03:32 305 1 gusting 6 1.1
2019-Sep-20 03:27 310 1 gusting 6 1.1
2019-Sep-20 03:22 316 1 gusting 4 1.1
2019-Sep-20 03:17 300 0 gusting 4 1.1
2019-Sep-20 03:12 304 0 gusting 6 1.1
2019-Sep-20 03:07 310 0 gusting 6 0.6
2019-Sep-20 03:02 314 1 gusting 4 0.6
2019-Sep-20 02:57 311 0 gusting 4 0.6
2019-Sep-20 02:52 312 0 gusting 4 0.6
2019-Sep-20 02:47 311 0 gusting 4 0.6
2019-Sep-20 02:42 312 0 gusting 3 0.6
2019-Sep-20 02:37 312 0 gusting 3 0.6
2019-Sep-20 02:32 322 0 gusting 3 0.6
2019-Sep-20 02:27 321 0 gusting 3 0.6
2019-Sep-20 02:22 321 0 gusting 4 0.6
2019-Sep-20 02:17 321 0 gusting 4 0.6
2019-Sep-20 02:12 316 0 gusting 3 -0.0
2019-Sep-20 02:07 316 0 gusting 3 -0.0
2019-Sep-20 02:02 303 0 gusting 6 -0.0
2019-Sep-20 01:57 303 0 gusting 6 -0.6
2019-Sep-20 01:52 302 0 gusting 6 -0.6
2019-Sep-20 01:47 303 0 gusting 6 -0.6
2019-Sep-20 01:42 303 0 gusting 6 -0.6
2019-Sep-20 01:37 314 -0.6
2019-Sep-20 01:32 307 -0.6
2019-Sep-20 01:27 307 -0.6
2019-Sep-20 01:22 306 -0.6
2019-Sep-20 01:17 339 -0.6
2019-Sep-20 01:12 339 -0.6
2019-Sep-20 01:07 339 -1.1
2019-Sep-20 01:02 339 -1.1
2019-Sep-20 00:57 339 -1.1
2019-Sep-20 00:52 339 -1.1
2019-Sep-20 00:47 339 -0.6
2019-Sep-20 00:42 339 -1.1
2019-Sep-20 00:37 339 -1.1
2019-Sep-20 00:32 339 -1.1
2019-Sep-20 00:27 339 -1.1
2019-Sep-20 00:22 339 -1.1
2019-Sep-20 00:17 339 -0.6
2019-Sep-20 00:12 339 -0.6
2019-Sep-20 00:07 339 -0.6
2019-Sep-20 00:02 339 -0.6
2019-Sep-19 23:57 339 -0.6
2019-Sep-19 23:52 339 -0.6
2019-Sep-19 23:47 339 -0.6
2019-Sep-19 23:42 338 -0.6
2019-Sep-19 23:37 339 -0.6
2019-Sep-19 23:32 339 -0.6
2019-Sep-19 23:27 339 -0.6
2019-Sep-19 23:22 338 -0.6
2019-Sep-19 23:17 339 -0.0
2019-Sep-19 23:12 338 -0.0
2019-Sep-19 23:07 339 -0.0
2019-Sep-19 23:02 339 0 gusting 3 -0.0
2019-Sep-19 22:57 339 0 gusting 3 -0.0
2019-Sep-19 22:52 339 -0.0
2019-Sep-19 22:47 339 -0.0
2019-Sep-19 22:42 339 -0.0
2019-Sep-19 22:37 339 -0.0
2019-Sep-19 22:32 339 -0.0
2019-Sep-19 22:27 339 -0.0
2019-Sep-19 22:22 338 -0.0
2019-Sep-19 22:17 339 -0.0
2019-Sep-19 22:12 339 0 gusting 2 -0.0
2019-Sep-19 22:07 339 -0.0
2019-Sep-19 22:02 339 0.6
2019-Sep-19 21:57 339 0.6
2019-Sep-19 21:52 339 0 gusting 3 0.6
2019-Sep-19 21:47 339 0 gusting 3 0.6
2019-Sep-19 21:42 338 0 gusting 3 0.6
2019-Sep-19 21:37 338 0 gusting 3 0.6
2019-Sep-19 21:32 338 0 gusting 4 0.6
2019-Sep-19 21:27 338 0 gusting 4 0.6
2019-Sep-19 21:22 338 0 gusting 3 0.6
2019-Sep-19 21:17 316 0 gusting 4 0.6
2019-Sep-19 21:12 316 0 gusting 4 0.6
2019-Sep-19 21:07 339 0 gusting 3 1.1
2019-Sep-19 21:02 339 0 gusting 4 1.1
2019-Sep-19 20:57 355 0 gusting 4 1.1
2019-Sep-19 20:52 355 0 gusting 4 1.1
2019-Sep-19 20:47 355 0 gusting 4 1.1
2019-Sep-19 20:42 351 0 gusting 4 1.1
2019-Sep-19 20:37 336 1 gusting 4 1.1
2019-Sep-19 20:32 336 1 gusting 4 1.1
2019-Sep-19 20:27 333 1 gusting 4 1.1
2019-Sep-19 20:22 307 0 gusting 4 1.1
2019-Sep-19 20:17 342 0 gusting 4 1.1
2019-Sep-19 20:12 344 0 gusting 4 1.1
2019-Sep-19 20:07 333 0 gusting 4 1.1
2019-Sep-19 20:02 323 0 gusting 3 1.1
2019-Sep-19 19:57 324 0 gusting 5 1.1
2019-Sep-19 19:52 324 1 gusting 5 1.1
2019-Sep-19 19:47 325 1 gusting 4 1.1
2019-Sep-19 19:42 294 0 gusting 4 1.1
2019-Sep-19 19:37 294 0 gusting 4 1.1
2019-Sep-19 19:32 294 0 gusting 4 1.1
2019-Sep-19 19:27 294 0 gusting 3 1.7
2019-Sep-19 19:22 292 0 gusting 3 1.7
2019-Sep-19 19:17 292 0 gusting 3 1.7
2019-Sep-19 19:12 338 0 gusting 3 1.7
2019-Sep-19 19:07 338 0 gusting 3 1.7
2019-Sep-19 19:02 338 1.7
2019-Sep-19 18:57 338 2.2
2019-Sep-19 18:52 338 2.2
2019-Sep-19 18:47 338 0 gusting 2 2.2
2019-Sep-19 18:42 338 0 gusting 3 2.2
2019-Sep-19 18:37 338 0 gusting 3 2.2
2019-Sep-19 18:32 338 1 gusting 3 2.8
2019-Sep-19 18:27 340 1 gusting 5 2.8
2019-Sep-19 18:22 340 1 gusting 5 2.8
2019-Sep-19 18:17 340 2 gusting 8 2.8
2019-Sep-19 18:12 005 2 gusting 8 2.8
2019-Sep-19 18:07 342 2 gusting 8 2.8
2019-Sep-19 18:02 355 2 gusting 8 3.3
2019-Sep-19 17:57 333 3 gusting 7 3.3
2019-Sep-19 17:52 344 3 gusting 7 3.3
2019-Sep-19 17:47 355 2 gusting 7 3.3
2019-Sep-19 17:42 351 3 gusting 7 3.3
2019-Sep-19 17:37 346 3 gusting 8 3.3
2019-Sep-19 17:32 355 3 gusting 8 3.3
2019-Sep-19 17:27 355 2 gusting 6 3.3
2019-Sep-19 17:22 333 2 gusting 6 3.3
2019-Sep-19 17:17 338 1 gusting 5 3.3
2019-Sep-19 17:12 355 1 gusting 5 3.3
2019-Sep-19 17:07 355 1 gusting 5 3.3
2019-Sep-19 17:02 346 0 gusting 5 3.3